Time,TemperatureF,DewpointF,PressureIn,WindDirection,WindDirectionDegrees,WindSpeedMPH,WindSpeedGustMPH,Humidity,HourlyPrecipIn,Conditions,Clouds,dailyrainin,SoftwareType,DateUTC
2013-04-22 00:00:00,37.0,22.3,30.50,SE,139,0.0,0.0,55,0.00,,,0.00,VWS V14.01,2013-04-22 04:00:00,
2013-04-22 00:01:00,37.0,22.7,30.50,SE,139,0.0,0.0,56,0.00,,,0.00,VWS V14.01,2013-04-22 04:01:00,
2013-04-22 00:02:00,37.0,22.7,30.50,SE,139,0.0,0.0,56,0.00,,,0.00,VWS V14.01,2013-04-22 04:02:00,
2013-04-22 00:03:00,36.8,22.6,30.50,SE,139,0.0,0.0,56,0.00,,,0.00,VWS V14.01,2013-04-22 04:03:00,
2013-04-22 00:04:00,36.8,22.6,30.50,SE,139,0.0,0.0,56,0.00,,,0.00,VWS V14.01,2013-04-22 04:04:00,
2013-04-22 00:05:00,36.8,22.6,30.50,SE,139,0.0,0.0,56,0.00,,,0.00,VWS V14.01,2013-04-22 04:05:00,
2013-04-22 00:06:00,36.8,22.6,30.50,SE,139,0.0,0.0,56,0.00,,,0.00,VWS V14.01,2013-04-22 04:06:00,
2013-04-22 00:07:00,36.8,22.6,30.50,SE,139,0.0,0.0,56,0.00,,,0.00,VWS V14.01,2013-04-22 04:07:00,
2013-04-22 00:08:00,36.8,22.6,30.50,SE,139,0.0,0.0,56,0.00,,,0.00,VWS V14.01,2013-04-22 04:08:00,
2013-04-22 00:09:00,36.8,22.6,30.50,SE,139,0.0,0.0,56,0.00,,,0.00,VWS V14.01,2013-04-22 04:09:00,
2013-04-22 00:10:00,36.6,22.8,30.50,SE,139,0.0,0.0,57,0.00,,,0.00,VWS V14.01,2013-04-22 04:10:00,
2013-04-22 00:11:00,36.6,22.8,30.50,SE,139,0.0,0.0,57,0.00,,,0.00,VWS V14.01,2013-04-22 04:11:00,
2013-04-22 00:12:00,36.6,22.8,30.50,SE,139,0.0,0.0,57,0.00,,,0.00,VWS V14.01,2013-04-22 04:12:00,
2013-04-22 00:13:00,36.6,22.8,30.50,SE,139,0.0,0.0,57,0.00,,,0.00,VWS V14.01,2013-04-22 04:13:00,
2013-04-22 00:14:00,36.6,22.8,30.50,SE,139,0.0,0.0,57,0.00,,,0.00,VWS V14.01,2013-04-22 04:14:00,
2013-04-22 00:15:00,36.6,22.8,30.50,SE,139,0.0,0.0,57,0.00,,,0.00,VWS V14.01,2013-04-22 04:15:00,
2013-04-22 00:16:00,36.6,23.2,30.50,SE,139,0.0,0.0,58,0.00,,,0.00,VWS V14.01,2013-04-22 04:16:00,
2013-04-22 00:17:00,36.6,23.2,30.50,SE,139,0.0,0.0,58,0.00,,,0.00,VWS V14.01,2013-04-22 04:17:00,
2013-04-22 00:18:00,36.4,23.1,30.50,SE,139,0.0,0.0,58,0.00,,,0.00,VWS V14.01,2013-04-22 04:18:00,
2013-04-22 00:19:00,36.4,23.1,30.50,SE,139,0.0,0.0,58,0.00,,,0.00,VWS V14.01,2013-04-22 04:19:00,
2013-04-22 00:20:00,36.4,23.1,30.50,SE,139,0.0,0.0,58,0.00,,,0.00,VWS V14.01,2013-04-22 04:20:00,
2013-04-22 00:21:00,36.4,23.5,30.50,SE,139,0.0,0.0,59,0.00,,,0.00,VWS V14.01,2013-04-22 04:21:00,
2013-04-22 00:22:00,36.4,23.5,30.50,SE,139,0.0,0.0,59,0.00,,,0.00,VWS V14.01,2013-04-22 04:22:00,
2013-04-22 00:23:00,36.4,23.5,30.50,SE,139,0.0,0.0,59,0.00,,,0.00,VWS V14.01,2013-04-22 04:23:00,
2013-04-22 00:24:00,36.4,23.5,30.50,SE,139,0.0,0.0,59,0.00,,,0.00,VWS V14.01,2013-04-22 04:24:00,
2013-04-22 00:25:00,36.4,23.5,30.50,SE,139,0.0,0.0,59,0.00,,,0.00,VWS V14.01,2013-04-22 04:25:00,
2013-04-22 00:26:00,36.4,23.5,30.50,SE,139,0.0,0.0,59,0.00,,,0.00,VWS V14.01,2013-04-22 04:26:00,
2013-04-22 00:27:00,36.4,23.5,30.50,SE,139,0.0,0.0,59,0.00,,,0.00,VWS V14.01,2013-04-22 04:27:00,
2013-04-22 00:28:00,36.4,23.5,30.50,SE,139,0.0,0.0,59,0.00,,,0.00,VWS V14.01,2013-04-22 04:28:00,
2013-04-22 00:29:00,36.4,23.5,30.50,SE,139,0.0,0.0,59,0.00,,,0.00,VWS V14.01,2013-04-22 04:29:00,
2013-04-22 00:30:00,36.4,23.5,30.50,SE,139,0.0,0.0,59,0.00,,,0.00,VWS V14.01,2013-04-22 04:30:00,
2013-04-22 00:31:00,36.4,23.5,30.50,SE,139,0.0,0.0,59,0.00,,,0.00,VWS V14.01,2013-04-22 04:31:00,
2013-04-22 00:32:00,36.4,23.5,30.50,SE,138,0.0,0.0,59,0.00,,,0.00,VWS V14.01,2013-04-22 04:32:00,
2013-04-22 00:33:00,36.4,23.5,30.50,SE,139,0.0,0.0,59,0.00,,,0.00,VWS V14.01,2013-04-22 04:33:00,
2013-04-22 00:34:00,36.4,23.5,30.50,SE,139,0.0,0.0,59,0.00,,,0.00,VWS V14.01,2013-04-22 04:34:00,
2013-04-22 00:35:00,36.4,23.5,30.50,SE,139,0.0,0.0,59,0.00,,,0.00,VWS V14.01,2013-04-22 04:35:00,
2013-04-22 00:36:00,36.4,23.9,30.50,SE,139,0.0,0.0,60,0.00,,,0.00,VWS V14.01,2013-04-22 04:36:00,
2013-04-22 00:37:00,36.4,23.9,30.50,SE,139,0.0,0.0,60,0.00,,,0.00,VWS V14.01,2013-04-22 04:37:00,
2013-04-22 00:38:00,36.4,23.9,30.50,SE,139,0.0,0.0,60,0.00,,,0.00,VWS V14.01,2013-04-22 04:38:00,
2013-04-22 00:39:00,36.4,23.9,30.50,SE,139,0.0,0.0,60,0.00,,,0.00,VWS V14.01,2013-04-22 04:39:00,
2013-04-22 00:40:00,36.4,23.9,30.50,SE,139,0.0,0.0,60,0.00,,,0.00,VWS V14.01,2013-04-22 04:40:00,
2013-04-22 00:41:00,36.4,23.9,30.50,SE,139,0.0,0.0,60,0.00,,,0.00,VWS V14.01,2013-04-22 04:41:00,
2013-04-22 00:42:00,36.2,23.7,30.50,SE,139,0.0,0.0,60,0.00,,,0.00,VWS V14.01,2013-04-22 04:42:00,
2013-04-22 00:43:00,36.2,23.7,30.50,SE,139,0.0,0.0,60,0.00,,,0.00,VWS V14.01,2013-04-22 04:43:00,
2013-04-22 00:44:00,36.2,23.7,30.50,SE,139,0.0,0.0,60,0.00,,,0.00,VWS V14.01,2013-04-22 04:44:00,
2013-04-22 00:45:00,36.2,23.7,30.50,SE,139,0.0,0.0,60,0.00,,,0.00,VWS V14.01,2013-04-22 04:45:00,
2013-04-22 00:46:00,36.2,23.7,30.50,SE,139,0.0,0.0,60,0.00,,,0.00,VWS V14.01,2013-04-22 04:46:00,
2013-04-22 00:47:00,36.1,23.5,30.50,SE,139,0.0,0.0,60,0.00,,,0.00,VWS V14.01,2013-04-22 04:47:00,
2013-04-22 00:48:00,36.1,23.5,30.50,SE,139,0.0,0.0,60,0.00,,,0.00,VWS V14.01,2013-04-22 04:48:00,
2013-04-22 00:49:00,36.1,23.5,30.50,SE,139,0.0,0.0,60,0.00,,,0.00,VWS V14.01,2013-04-22 04:49:00,
2013-04-22 00:50:00,36.1,23.5,30.50,SE,139,0.0,0.0,60,0.00,,,0.00,VWS V14.01,2013-04-22 04:50:00,
2013-04-22 00:51:00,36.1,23.5,30.50,SE,139,0.0,0.0,60,0.00,,,0.00,VWS V14.01,2013-04-22 04:51:00,
2013-04-22 00:52:00,36.1,23.9,30.50,SE,139,0.0,0.0,61,0.00,,,0.00,VWS V14.01,2013-04-22 04:52:00,
2013-04-22 00:53:00,36.1,23.9,30.50,SE,139,0.0,0.0,61,0.00,,,0.00,VWS V14.01,2013-04-22 04:53:00,
2013-04-22 00:54:00,36.1,23.9,30.50,SE,139,0.0,0.0,61,0.00,,,0.00,VWS V14.01,2013-04-22 04:54:00,
2013-04-22 11:49:00,47.8,25.8,30.50,NE,54,10.1,11.0,42,0.00,,,0.00,VWS V14.01,2013-04-22 15:49:00,
2013-04-22 11:54:00,48.1,26.1,30.50,West,271,3.1,3.1,42,0.00,,,0.00,VWS V14.01,2013-04-22 15:54:00,
2013-04-22 11:59:00,48.5,26.5,30.50,ESE,123,5.8,7.6,42,0.00,,,0.00,VWS V14.01,2013-04-22 15:59:00,
2013-04-22 12:04:00,47.9,26.0,30.50,ENE,66,7.6,13.2,42,0.00,,,0.00,VWS V14.01,2013-04-22 16:04:00,
2013-04-22 12:09:00,47.8,25.8,30.50,East,89,5.4,6.3,42,0.00,,,0.00,VWS V14.01,2013-04-22 16:09:00,
2013-04-22 12:15:00,47.8,25.2,30.50,ENE,69,7.6,8.1,41,0.00,,,0.00,VWS V14.01,2013-04-22 16:15:00,
2013-04-22 12:20:00,47.8,25.8,30.50,ENE,58,5.8,7.6,42,0.00,,,0.00,VWS V14.01,2013-04-22 16:20:00,
2013-04-22 12:25:00,48.1,26.1,30.50,NE,43,5.8,8.1,42,0.00,,,0.00,VWS V14.01,2013-04-22 16:25:00,
2013-04-22 12:30:00,47.9,26.0,30.50,ENE,78,5.4,5.8,42,0.00,,,0.00,VWS V14.01,2013-04-22 16:30:00,
2013-04-22 12:35:00,48.1,26.1,30.50,ENE,65,9.6,9.6,42,0.00,,,0.00,VWS V14.01,2013-04-22 16:35:00,
2013-04-22 12:40:00,48.1,26.1,30.50,NE,50,7.6,15.4,42,0.00,,,0.00,VWS V14.01,2013-04-22 16:40:00,
2013-04-22 12:45:00,47.9,26.0,30.50,ENE,73,8.7,8.7,42,0.00,,,0.00,VWS V14.01,2013-04-22 16:45:00,
2013-04-22 12:50:00,47.8,25.8,30.50,ENE,74,4.0,6.3,42,0.00,,,0.00,VWS V14.01,2013-04-22 16:50:00,
2013-04-22 12:55:00,47.6,25.6,30.50,ENE,77,6.3,8.3,42,0.00,,,0.00,VWS V14.01,2013-04-22 16:55:00,
2013-04-22 13:00:00,47.0,25.7,30.50,ENE,78,5.8,8.1,43,0.00,,,0.00,VWS V14.01,2013-04-22 17:00:00,
2013-04-22 13:05:00,47.2,25.9,30.50,East,93,8.3,8.3,43,0.00,,,0.00,VWS V14.01,2013-04-22 17:05:00,
2013-04-22 13:10:00,47.2,25.9,30.47,ESE,112,5.8,7.6,43,0.00,,,0.00,VWS V14.01,2013-04-22 17:10:00,
2013-04-22 13:15:00,47.6,25.6,30.47,NE,55,10.5,10.5,42,0.00,,,0.00,VWS V14.01,2013-04-22 17:15:00,
2013-04-22 13:20:00,47.8,25.8,30.47,ENE,70,10.5,10.5,42,0.00,,,0.00,VWS V14.01,2013-04-22 17:20:00,
2013-04-22 13:25:00,48.1,26.1,30.47,ENE,58,12.8,15.9,42,0.00,,,0.00,VWS V14.01,2013-04-22 17:25:00,
2013-04-22 13:30:00,47.9,26.0,30.47,ESE,109,6.3,13.2,42,0.00,,,0.00,VWS V14.01,2013-04-22 17:30:00,
2013-04-22 13:35:00,47.6,26.2,30.47,ESE,123,5.4,5.8,43,0.00,,,0.00,VWS V14.01,2013-04-22 17:35:00,
2013-04-22 13:40:00,47.8,25.8,30.47,ESE,104,6.3,6.3,42,0.00,,,0.00,VWS V14.01,2013-04-22 17:40:00,
2013-04-22 13:45:00,47.9,26.0,30.47,NE,51,5.8,5.8,42,0.00,,,0.00,VWS V14.01,2013-04-22 17:45:00,
2013-04-22 13:50:00,48.1,26.1,30.47,NE,55,8.3,10.5,42,0.00,,,0.00,VWS V14.01,2013-04-22 17:50:00,
2013-04-22 13:55:00,47.8,25.8,30.47,NE,46,7.6,7.6,42,0.00,,,0.00,VWS V14.01,2013-04-22 17:55:00,
2013-04-22 14:00:00,47.8,25.8,30.47,East,100,5.4,7.6,42,0.00,,,0.00,VWS V14.01,2013-04-22 18:00:00,
2013-04-22 14:05:00,47.9,26.0,30.47,ESE,103,4.0,5.4,42,0.00,,,0.00,VWS V14.01,2013-04-22 18:05:00,
2013-04-22 14:10:00,48.1,26.1,30.47,ENE,65,5.4,8.1,42,0.00,,,0.00,VWS V14.01,2013-04-22 18:10:00,
2013-04-22 14:15:00,48.3,26.3,30.47,East,84,3.6,5.8,42,0.00,,,0.00,VWS V14.01,2013-04-22 18:15:00,
2013-04-22 14:20:00,48.5,26.5,30.47,ENE,72,10.5,10.5,42,0.00,,,0.00,VWS V14.01,2013-04-22 18:20:00,
2013-04-22 14:25:00,48.3,25.7,30.47,ENE,70,5.8,10.1,41,0.00,,,0.00,VWS V14.01,2013-04-22 18:25:00,
2013-04-22 14:31:00,48.3,26.3,30.47,East,82,4.9,7.6,42,0.00,,,0.00,VWS V14.01,2013-04-22 18:31:00,
2013-04-22 14:36:00,48.1,26.1,30.47,NE,49,4.0,4.9,42,0.00,,,0.00,VWS V14.01,2013-04-22 18:36:00,
2013-04-22 14:41:00,48.3,26.3,30.47,ENE,71,5.8,8.7,42,0.00,,,0.00,VWS V14.01,2013-04-22 18:41:00,
2013-04-22 14:46:00,48.1,26.1,30.47,ENE,71,6.3,8.3,42,0.00,,,0.00,VWS V14.01,2013-04-22 18:46:00,
2013-04-22 14:51:00,48.3,26.3,30.47,East,86,6.3,6.3,42,0.00,,,0.00,VWS V14.01,2013-04-22 18:51:00,
2013-04-22 14:56:00,48.3,26.3,30.47,ENE,73,6.3,6.3,42,0.00,,,0.00,VWS V14.01,2013-04-22 18:56:00,
2013-04-22 15:01:00,47.9,26.0,30.47,NNE,22,5.8,10.5,42,0.00,,,0.00,VWS V14.01,2013-04-22 19:01:00,
2013-04-22 15:06:00,47.8,26.4,30.47,NE,56,5.8,8.3,43,0.00,,,0.00,VWS V14.01,2013-04-22 19:06:00,
2013-04-22 15:11:00,47.8,26.4,30.47,NE,50,8.7,8.7,43,0.00,,,0.00,VWS V14.01,2013-04-22 19:11:00,
2013-04-22 15:16:00,47.8,26.4,30.47,East,84,5.8,5.8,43,0.00,,,0.00,VWS V14.01,2013-04-22 19:16:00,
2013-04-22 15:21:00,47.8,26.4,30.47,ENE,66,5.8,10.5,43,0.00,,,0.00,VWS V14.01,2013-04-22 19:21:00,
2013-04-22 15:26:00,47.9,26.0,30.45,East,79,7.6,8.3,42,0.00,,,0.00,VWS V14.01,2013-04-22 19:26:00,
2013-04-22 15:31:00,48.1,26.7,30.45,ENE,62,8.1,8.7,43,0.00,,,0.00,VWS V14.01,2013-04-22 19:31:00,
2013-04-22 15:36:00,48.3,26.9,30.45,East,80,5.8,11.0,43,0.00,,,0.00,VWS V14.01,2013-04-22 19:36:00,
2013-04-22 15:41:00,48.3,26.9,30.45,ENE,62,8.1,8.1,43,0.00,,,0.00,VWS V14.01,2013-04-22 19:41:00,
2013-04-22 15:46:00,48.3,26.3,30.45,ENE,77,8.3,8.3,42,0.00,,,0.00,VWS V14.01,2013-04-22 19:46:00,
2013-04-22 15:51:00,48.1,26.7,30.45,East,91,6.3,8.7,43,0.00,,,0.00,VWS V14.01,2013-04-22 19:51:00,
2013-04-22 15:56:00,48.3,27.4,30.45,ENE,60,4.0,4.0,44,0.00,,,0.00,VWS V14.01,2013-04-22 19:56:00,
2013-04-22 16:01:00,48.3,27.4,30.45,ENE,63,4.9,5.4,44,0.00,,,0.00,VWS V14.01,2013-04-22 20:01:00,
2013-04-22 16:06:00,48.3,27.4,30.42,East,80,8.3,8.7,44,0.00,,,0.00,VWS V14.01,2013-04-22 20:06:00,
2013-04-22 16:11:00,47.9,27.1,30.42,ENE,58,4.0,5.8,44,0.00,,,0.00,VWS V14.01,2013-04-22 20:11:00,
2013-04-22 16:16:00,48.1,27.2,30.42,ENE,63,7.6,9.6,44,0.00,,,0.00,VWS V14.01,2013-04-22 20:16:00,
2013-04-22 16:21:00,48.1,27.2,30.42,East,90,8.3,8.3,44,0.00,,,0.00,VWS V14.01,2013-04-22 20:21:00,
2013-04-22 16:26:00,48.1,27.8,30.42,ESE,114,8.7,11.9,45,0.00,,,0.00,VWS V14.01,2013-04-22 20:26:00,
2013-04-22 16:31:00,48.3,28.0,30.42,NE,53,8.1,8.1,45,0.00,,,0.00,VWS V14.01,2013-04-22 20:31:00,
2013-04-22 16:36:00,48.1,27.8,30.42,SE,135,9.2,11.9,45,0.00,,,0.00,VWS V14.01,2013-04-22 20:36:00,
2013-04-22 16:42:00,47.8,28.0,30.42,ESE,113,11.9,15.4,46,0.00,,,0.00,VWS V14.01,2013-04-22 20:42:00,
2013-04-22 16:47:00,47.8,28.0,30.42,ENE,75,8.1,10.1,46,0.00,,,0.00,VWS V14.01,2013-04-22 20:47:00,
2013-04-22 16:52:00,47.6,28.4,30.42,East,88,14.5,14.5,47,0.00,,,0.00,VWS V14.01,2013-04-22 20:52:00,
2013-04-22 16:57:00,47.8,28.5,30.42,ENE,74,5.8,11.0,47,0.00,,,0.00,VWS V14.01,2013-04-22 20:57:00,
2013-04-22 17:02:00,47.9,28.2,30.42,East,84,10.1,10.5,46,0.00,,,0.00,VWS V14.01,2013-04-22 21:02:00,
2013-04-22 17:07:00,47.8,28.0,30.42,ENE,61,8.3,10.1,46,0.00,,,0.00,VWS V14.01,2013-04-22 21:07:00,
2013-04-22 17:12:00,47.8,28.5,30.42,ENE,64,7.6,10.1,47,0.00,,,0.00,VWS V14.01,2013-04-22 21:12:00,
2013-04-22 17:17:00,47.9,28.7,30.42,ENE,61,6.7,15.0,47,0.00,,,0.00,VWS V14.01,2013-04-22 21:17:00,
2013-04-22 17:22:00,48.3,28.5,30.42,ESE,108,7.6,12.3,46,0.00,,,0.00,VWS V14.01,2013-04-22 21:22:00,
2013-04-22 17:27:00,48.3,28.5,30.42,ENE,73,8.7,8.7,46,0.00,,,0.00,VWS V14.01,2013-04-22 21:27:00,
2013-04-22 17:32:00,48.1,28.3,30.42,ENE,74,8.7,8.7,46,0.00,,,0.00,VWS V14.01,2013-04-22 21:32:00,
2013-04-22 17:37:00,47.9,28.2,30.42,East,83,6.3,6.3,46,0.00,,,0.00,VWS V14.01,2013-04-22 21:37:00,
2013-04-22 17:42:00,47.9,28.7,30.42,NE,46,5.4,5.4,47,0.00,,,0.00,VWS V14.01,2013-04-22 21:42:00,
2013-04-22 17:47:00,47.8,28.0,30.42,ENE,67,11.0,11.9,46,0.00,,,0.00,VWS V14.01,2013-04-22 21:47:00,
2013-04-22 17:52:00,47.4,28.2,30.42,ENE,76,7.6,8.3,47,0.00,,,0.00,VWS V14.01,2013-04-22 21:52:00,
2013-04-22 17:57:00,47.4,28.7,30.42,ESE,112,5.8,8.7,48,0.00,,,0.00,VWS V14.01,2013-04-22 21:57:00,
2013-04-22 18:02:00,47.4,29.2,30.42,ENE,73,9.2,10.5,49,0.00,,,0.00,VWS V14.01,2013-04-22 22:02:00,
2013-04-22 18:07:00,47.4,29.2,30.42,NE,55,5.8,5.8,49,0.00,,,0.00,VWS V14.01,2013-04-22 22:07:00,
2013-04-22 18:12:00,47.6,29.4,30.42,NE,50,6.3,11.0,49,0.00,,,0.00,VWS V14.01,2013-04-22 22:12:00,
2013-04-22 18:17:00,47.2,29.5,30.42,East,83,8.1,8.7,50,0.00,,,0.00,VWS V14.01,2013-04-22 22:17:00,
2013-04-22 18:22:00,47.2,30.0,30.39,ENE,65,4.0,4.9,51,0.00,,,0.00,VWS V14.01,2013-04-22 22:22:00,
2013-04-22 18:27:00,47.4,30.2,30.39,ENE,58,6.3,6.3,51,0.00,,,0.00,VWS V14.01,2013-04-22 22:27:00,
2013-04-22 18:32:00,47.4,30.2,30.39,East,99,5.4,6.3,51,0.00,,,0.00,VWS V14.01,2013-04-22 22:32:00,
2013-04-22 18:37:00,47.2,30.5,30.39,East,100,13.6,13.6,52,0.00,,,0.00,VWS V14.01,2013-04-22 22:37:00,
2013-04-22 18:42:00,47.0,30.3,30.39,East,79,6.3,6.3,52,0.00,,,0.00,VWS V14.01,2013-04-22 22:42:00,
2013-04-22 18:47:00,46.9,30.6,30.39,ENE,70,8.1,8.1,53,0.00,,,0.00,VWS V14.01,2013-04-22 22:47:00,
2013-04-22 18:53:00,46.9,30.6,30.39,ENE,64,5.8,7.6,53,0.00,,,0.00,VWS V14.01,2013-04-22 22:53:00,
2013-04-22 18:58:00,46.7,30.9,30.39,ESE,111,4.0,8.1,54,0.00,,,0.00,VWS V14.01,2013-04-22 22:58:00,
2013-04-22 19:03:00,46.7,30.9,30.39,ENE,59,4.9,8.3,54,0.00,,,0.00,VWS V14.01,2013-04-22 23:03:00,
2013-04-22 19:08:00,46.5,31.2,30.39,ENE,74,6.3,11.0,55,0.00,,,0.00,VWS V14.01,2013-04-22 23:08:00,
2013-04-22 19:13:00,46.3,31.5,30.39,NE,55,6.3,7.6,56,0.00,,,0.00,VWS V14.01,2013-04-22 23:13:00,
2013-04-22 19:18:00,46.3,31.9,30.39,NE,50,6.3,7.6,57,0.00,,,0.00,VWS V14.01,2013-04-22 23:18:00,
2013-04-22 19:23:00,46.3,31.9,30.39,SE,139,6.3,6.3,57,0.00,,,0.00,VWS V14.01,2013-04-22 23:23:00,
2013-04-22 19:28:00,46.3,32.4,30.39,East,87,11.0,11.0,58,0.00,,,0.00,VWS V14.01,2013-04-22 23:28:00,
2013-04-22 19:33:00,46.1,32.2,30.39,ENE,59,12.3,12.3,58,0.00,,,0.00,VWS V14.01,2013-04-22 23:33:00,
2013-04-22 19:38:00,46.1,32.2,30.39,ENE,75,6.3,11.0,58,0.00,,,0.00,VWS V14.01,2013-04-22 23:38:00,
2013-04-22 19:43:00,46.1,32.6,30.39,East,101,5.4,5.4,59,0.00,,,0.00,VWS V14.01,2013-04-22 23:43:00,
2013-04-22 19:48:00,46.1,32.6,30.39,East,83,5.4,9.6,59,0.00,,,0.00,VWS V14.01,2013-04-22 23:48:00,
2013-04-22 19:53:00,46.1,32.6,30.39,ENE,75,5.4,5.4,59,0.00,,,0.00,VWS V14.01,2013-04-22 23:53:00,
2013-04-22 19:58:00,46.1,33.0,30.39,NE,48,8.7,8.7,60,0.00,,,0.00,VWS V14.01,2013-04-22 23:58:00,
2013-04-22 20:03:00,46.1,33.0,30.39,East,100,7.6,7.6,60,0.00,,,0.00,VWS V14.01,2013-04-23 00:03:00,
2013-04-22 20:08:00,46.1,33.5,30.39,ENE,62,8.1,8.1,61,0.00,,,0.00,VWS V14.01,2013-04-23 00:08:00,
2013-04-22 20:13:00,46.1,33.5,30.39,ENE,57,5.8,6.3,61,0.00,,,0.00,VWS V14.01,2013-04-23 00:13:00,
2013-04-22 20:18:00,46.1,33.5,30.39,ENE,69,11.0,11.0,61,0.00,,,0.00,VWS V14.01,2013-04-23 00:18:00,
2013-04-22 20:23:00,46.1,33.5,30.39,NE,51,11.0,11.0,61,0.00,,,0.00,VWS V14.01,2013-04-23 00:23:00,
2013-04-22 20:28:00,46.1,33.5,30.39,East,83,4.9,5.8,61,0.00,,,0.00,VWS V14.01,2013-04-23 00:28:00,
2013-04-22 20:33:00,46.1,33.5,30.39,ENE,62,8.1,8.1,61,0.00,,,0.00,VWS V14.01,2013-04-23 00:33:00,
2013-04-22 20:38:00,46.1,33.5,30.39,East,83,3.6,6.3,61,0.00,,,0.00,VWS V14.01,2013-04-23 00:38:00,
2013-04-22 20:43:00,46.1,33.5,30.39,East,82,7.2,10.1,61,0.00,,,0.00,VWS V14.01,2013-04-23 00:43:00,
2013-04-22 20:48:00,46.1,33.5,30.39,ENE,57,4.9,6.7,61,0.00,,,0.00,VWS V14.01,2013-04-23 00:48:00,
2013-04-22 20:53:00,46.0,32.9,30.39,ENE,76,8.1,8.1,60,0.00,,,0.00,VWS V14.01,2013-04-23 00:53:00,
2013-04-22 20:58:00,46.0,32.5,30.39,NE,54,6.3,12.3,59,0.00,,,0.00,VWS V14.01,2013-04-23 00:58:00,
2013-04-22 21:03:00,46.0,32.9,30.39,NE,52,4.0,6.3,60,0.00,,,0.00,VWS V14.01,2013-04-23 01:03:00,
2013-04-22 21:09:00,46.0,32.9,30.39,East,90,5.8,6.3,60,0.00,,,0.00,VWS V14.01,2013-04-23 01:09:00,
2013-04-22 21:14:00,46.0,33.3,30.39,ESE,113,10.5,10.5,61,0.00,,,0.00,VWS V14.01,2013-04-23 01:14:00,
2013-04-22 21:19:00,46.0,32.9,30.39,SSE,148,7.6,9.6,60,0.00,,,0.00,VWS V14.01,2013-04-23 01:19:00,
2013-04-22 21:24:00,46.0,32.9,30.39,ESE,120,8.7,8.7,60,0.00,,,0.00,VWS V14.01,2013-04-23 01:24:00,
2013-04-22 21:29:00,45.8,33.1,30.39,East,101,3.1,5.4,61,0.00,,,0.00,VWS V14.01,2013-04-23 01:29:00,
2013-04-22 21:34:00,45.8,33.1,30.39,ENE,61,6.3,8.1,61,0.00,,,0.00,VWS V14.01,2013-04-23 01:34:00,
2013-04-22 21:39:00,45.8,33.1,30.39,ENE,62,3.1,8.7,61,0.00,,,0.00,VWS V14.01,2013-04-23 01:39:00,
2013-04-22 21:44:00,45.8,33.1,30.39,ENE,72,5.4,5.8,61,0.00,,,0.00,VWS V14.01,2013-04-23 01:44:00,
2013-04-22 21:49:00,45.6,32.9,30.39,NE,43,6.3,7.6,61,0.00,,,0.00,VWS V14.01,2013-04-23 01:49:00,
2013-04-22 21:54:00,45.6,32.9,30.39,East,99,5.8,5.8,61,0.00,,,0.00,VWS V14.01,2013-04-23 01:54:00,
2013-04-22 21:59:00,45.6,32.9,30.39,NE,49,15.9,15.9,61,0.00,,,0.00,VWS V14.01,2013-04-23 01:59:00,
2013-04-22 22:04:00,45.6,32.9,30.39,NE,34,5.4,8.3,61,0.00,,,0.00,VWS V14.01,2013-04-23 02:04:00,
2013-04-22 22:09:00,45.4,32.8,30.39,East,83,4.0,4.0,61,0.00,,,0.00,VWS V14.01,2013-04-23 02:09:00,
2013-04-22 22:14:00,45.4,32.8,30.39,ENE,67,11.4,11.4,61,0.00,,,0.00,VWS V14.01,2013-04-23 02:14:00,
2013-04-22 22:19:00,45.4,32.8,30.39,ENE,65,4.0,6.3,61,0.00,,,0.00,VWS V14.01,2013-04-23 02:19:00,
2013-04-22 22:24:00,45.2,32.6,30.39,ENE,70,5.8,10.5,61,0.00,,,0.00,VWS V14.01,2013-04-23 02:24:00,
2013-04-22 22:29:00,45.2,32.6,30.39,East,82,5.8,6.3,61,0.00,,,0.00,VWS V14.01,2013-04-23 02:29:00,
2013-04-22 22:34:00,45.2,32.6,30.39,ENE,73,6.3,6.3,61,0.00,,,0.00,VWS V14.01,2013-04-23 02:34:00,
2013-04-22 22:39:00,45.2,32.2,30.36,NE,56,5.8,7.6,60,0.00,,,0.00,VWS V14.01,2013-04-23 02:39:00,
2013-04-22 22:44:00,45.2,32.2,30.36,ENE,77,4.9,10.5,60,0.00,,,0.00,VWS V14.01,2013-04-23 02:44:00,
2013-04-22 22:49:00,45.1,32.0,30.36,East,93,6.7,8.3,60,0.00,,,0.00,VWS V14.01,2013-04-23 02:49:00,
2013-04-22 22:54:00,45.1,32.0,30.36,East,89,5.4,8.3,60,0.00,,,0.00,VWS V14.01,2013-04-23 02:54:00,
2013-04-22 22:59:00,45.1,31.6,30.36,NE,55,4.0,6.3,59,0.00,,,0.00,VWS V14.01,2013-04-23 02:59:00,
2013-04-22 23:04:00,45.1,31.6,30.36,ENE,64,8.1,8.7,59,0.00,,,0.00,VWS V14.01,2013-04-23 03:04:00,
2013-04-22 23:09:00,45.1,31.6,30.36,ENE,68,6.3,10.5,59,0.00,,,0.00,VWS V14.01,2013-04-23 03:09:00,
2013-04-22 23:14:00,45.1,31.6,30.36,ESE,103,9.6,9.6,59,0.00,,,0.00,VWS V14.01,2013-04-23 03:14:00,
2013-04-22 23:19:00,45.1,31.2,30.36,NE,41,4.9,4.9,58,0.00,,,0.00,VWS V14.01,2013-04-23 03:19:00,
2013-04-22 23:24:00,45.1,30.8,30.36,NE,52,6.3,11.0,57,0.00,,,0.00,VWS V14.01,2013-04-23 03:24:00,
2013-04-22 23:29:00,44.9,30.6,30.36,ENE,65,5.4,8.7,57,0.00,,,0.00,VWS V14.01,2013-04-23 03:29:00,
2013-04-22 23:35:00,44.9,30.6,30.36,ENE,73,8.1,8.1,57,0.00,,,0.00,VWS V14.01,2013-04-23 03:35:00,
2013-04-22 23:40:00,44.9,31.0,30.36,NE,54,4.9,5.4,58,0.00,,,0.00,VWS V14.01,2013-04-23 03:40:00,
2013-04-22 23:45:00,44.9,31.0,30.36,ENE,77,10.1,10.1,58,0.00,,,0.00,VWS V14.01,2013-04-23 03:45:00,
2013-04-22 23:50:00,44.9,30.6,30.36,ENE,75,5.8,5.8,57,0.00,,,0.00,VWS V14.01,2013-04-23 03:50:00,
2013-04-22 23:55:00,44.9,30.6,30.36,ENE,65,4.9,5.4,57,0.00,,,0.00,VWS V14.01,2013-04-23 03:55:00,